Location: Tel Aviv
(32.0670°N, 34.7670°E)
Time: 06:59:56
(UTC+03:00)

LilacSat-2 - Visible Passes

Search period start: 19 September 2024 00:00
Search period end: 29 September 2024 00:00
Orbit: 470 x 487 km, 97.5° (Epoch: 18 September)

Date Brightness Start Highest point End Pass type
(mag) Time Alt. Az. Time Alt. Az. Time Alt. Az.
21 Sep ? 19:26:16 10° SW 19:28:31 16° W 19:30:47 10° NW visible
22 Sep ? 18:58:46 10° S 19:02:03 38° W 19:05:21 10° NNW visible
24 Sep ? 19:42:03 10° WSW 19:42:37 10° W 19:43:11 10° W visible
25 Sep ? 19:13:07 10° SSW 19:16:01 24° W 19:18:56 10° NW visible
28 Sep ? 19:27:33 10° SW 19:29:45 16° W 19:31:59 10° NW visible
